Cloud_Cover
0 0 0 0 0 99 100 95 100 100 100 29 12 5 29 27 5 32 26 11 5 2 14 11 15 13 33 94 84 100 10 5 5 3 5 73 12 57 0 0 0 0 0 0 0 10 8 0 0
0 0 0 0 0 0 56 100 100 100 100 100 22 16 24 73 9 26 5 10 44 25 17 0 0 9 83 100 100 100 100 67 87 22 6 7 10 1 3 0 0 0 0 0 0 0 0 0 0
0 0 0 0 0 0 0 19 100 100 100 100 100 65 4 5 5 5 8 5 76 91 16 2 0 3 42 100 68 100 100 100 88 98 100 28 12 12 5 5 3 0 0 0 0 0 0 0 0
0 0 0 0 0 0 0 64 96 100 100 100 100 100 99 37 5 8 66 100 100 100 100 14 5 0 30 60 61 41 100 100 97 32 100 100 100 99 12 0 0 0 0 0 0 0 0 0 0
0 0 0 0 0 0 0 0 0 92 100 100 100 100 100 100 100 38 5 79 100 100 100 100 30 5 1 5 86 92 100 100 98 100 100 100 100 58 13 7 0 0 0 0 0 0 0 0 3
0 0 0 0 0 0 0 0 0 0 100 100 100 100 100 100 100 100 88 5 7 99 100 100 100 32 9 5 100 100 100 100 100 100 88 70 22 76 97 41 4 2 0 0 0 0 0 0 0
0 0 0 0 0 0 0 0 0 0 0 38 100 100 100 100 100 100 78 14 19 92 100 100 100 89 43 47 78 100 100 100 100 100 100 100 100 100 68 9 12 5 0 0 0 0 0 0 0
0 0 0 0 0 0 0 0 0 0 0 0 100 100 100 100 100 100 100 99 80 64 100 100 100 100 100 100 41 14 98 100 100 100 100 100 100 27 86 5 5 0 0 0 0 0 0 0 0
0 0 5 0 0 0 0 0 0 0 0 0 0 53 100 100 100 100 100 100 92 100 100 93 77 83 100 100 100 100 100 100 100 100 89 94 28 64 10 8 0 1 0 0 0 1 5 4 3
0 31 0 0 0 0 0 0 1 0 0 0 0 0 88 100 100 100 100 100 100 69 14 29 25 31 93 68 80 36 96 100 100 100 80 16 18 24 5 3 3 0 0 0 2 21 26 5 16
0 15 0 0 0 0 0 0 0 1 0 0 0 0 0 26 100 100 100 100 100 10 19 36 92 39 72 59 91 33 58 93 51 87 18 8 5 5 5 1 0 0 5 5 5 5 16 11 30
0 0 0 0 0 0 0 0 0 0 0 0 0 0 0 0 82 38 97 100 100 100 100 100 66 62 90 86 60 31 22 77 23 78 17 23 10 5 5 5 2 0 0 20 65 70 100 100 100
0 0 0 0 0 0 0 0 0 0 0 0 0 0 0 0 0 0 0 64 100 100 99 73 61 5 73 93 56 24 40 10 7 33 80 48 42 8 5 5 5 4 97 100 100 100 100 91 21
0 0 0 0 0 0 0 0 0 0 0 0 0 0 0 0 0 0 0 0 98 100 100 98 81 24 25 63 24 56 13 10 28 91 100 100 100 100 55 5 4 85 94 100 100 100 40 5 4
2 0 0 0 0 0 0 0 0 0 0 0 0 0 0 0 0 0 0 0 4 72 100 100 88 60 87 68 45 44 8 33 91 100 100 100 100 100 80 49 96 50 9 11 11 2 5 5 5
48 4 4 0 0 0 0 0 0 0 0 0 0 0 0 0 0 0 0 0 0 38 88 51 86 100 88 100 79 38 100 100 100 100 100 100 100 100 100 99 20 0 0 1 5 0 5 5 5
100 29 4 5 0 0 0 0 0 0 0 0 0 0 0 0 0 0 0 0 0 0 63 8 49 100 100 100 65 59 100 100 100 100 100 100 97 100 100 90 4 3 0 5 5 2 5 5 27
84 91 16 5 3 0 0 0 0 0 0 0 0 0 0 0 0 0 0 0 0 0 3 100 100 100 100 100 91 96 100 100 100 100 100 100 90 22 41 9 5 3 3 0 4 5 5 4 5
9 29 32 24 9 1 0 0 0 0 0 0 0 0 0 0 0 0 0 0 0 0 0 81 100 100 100 100 100 100 100 100 100 100 100 100 82 100 46 4 0 0 0 0 0 0 0 0 0
5 60 38 23 5 5 2 0 0 0 0 0 0 0 0 0 0 0 0 0 0 0 0 4 100 100 100 100 100 100 100 100 100 100 100 100 6 4 4 3 0 0 0 0 0 0 0 0 0
5 53 97 48 14 3 2 0 0 0 0 0 0 0 0 0 0 0 0 0 0 0 0 0 24 100 100 100 100 100 100 100 100 100 100 66 4 0 0 0 0 0 0 0 0 0 0 0 0
96 5 5 5 23 54 5 16 0 0 0 0 0 0 0 0 0 0 0 0 0 0 0 0 0 30 100 100 97 77 41 75 100 100 6 0 0 1 0 0 0 0 0 0 0 0 0 0 0
64 89 21 32 10 16 5 79 5 0 0 0 0 0 0 0 0 0 0 0 0 0 0 0 0 2 62 46 16 33 86 98 54 5 5 5 2 0 0 0 0 0 0 0 0 0 0 0 0
97 100 100 100 72 95 5 10 4 5 4 2 0 0 0 0 0 0 0 0 0 0 0 0 0 5 32 59 44 10 5 29 18 5 5 5 1 0 0 0 0 0 0 0 0 0 0 0 0
100 100 100 100 100 73 5 3 4 100 64 34 2 0 0 0 0 0 0 0 0 0 0 0 0 5 5 6 5 5 30 73 72 75 5 5 0 0 0 0 0 1 0 0 0 0 1 4 2
100 100 100 100 49 5 50 6 17 95 100 100 5 0 0 0 0 0 0 0 0 0 0 0 3 5 5 5 5 5 5 69 9 5 5 0 0 0 0 0 0 0 0 0 0 0 0 0 0
100 100 100 100 100 100 42 1 0 1 98 100 4 0 0 0 0 0 0 0 0 0 3 5 0 5 5 5 9 8 6 5 5 1 4 5 5 0 0 0 0 0 0 0 0 0 1 4 5
100 100 100 100 100 98 1 1 2 12 53 37 3 0 0 0 0 0 0 0 0 2 5 0 0 3 5 5 5 5 5 5 2 5 5 5 1 0 0 0 3 1 0 0 1 5 5 5 5
100 100 91 92 86 99 17 0 36 63 100 9 3 67 2 0 0 0 0 0 0 2 0 5 0 5 4 5 5 46 27 5 5 5 5 0 0 0 1 0 4 0 3 5 5 5 5 6 46
100 100 100 100 100 29 1 18 53 81 100 100 81 100 20 8 1 0 0 0 0 0 1 0 3 5 5 5 42 66 62 5 5 5 0 0 0 5 0 4 3 5 5 5 5 45 81 80 10